Date String (YYYY-MM-DD hh:mm:ss) UTC,Instrument flags,Ambient pressure (hPa),Sample flow (lpm),Bypass flow (lpm),Sample temperature (°C),Ambient temperature (°C),ASC tube jacket temperature (°C),LED temperature (°C),Box temperature (°C),Sample RH (%),Span deviation,Mass concentration (μg/m³),Mass concentration (μg/m³),Mass concentration (μg/m³)
DateTimeUTC,F1_M11,P_M11,Q1_M11,Q2_M11,T1_M11,T2_M11,T3_M11,T4_M11,T5_M11,U1_M11,ZSPAN_M11,X0_M11,X2_M11,X1_M11
2021-10-06 01:00:00,,0828.5,5.00,0.00,29.3,28.0,00.0,38.3,31.1,14.1,0001.9,0019.69,0004.96,0003.49
2021-10-06 01:01:00,,0828.5,5.01,0.00,29.3,28.3,00.0,38.3,31.2,14.1,0002.7,0019.63,0004.95,0003.47
2021-10-06 01:02:00,,0828.5,5.00,0.00,29.4,28.4,00.0,38.3,31.3,14.1,0002.6,0019.58,0004.94,0003.47
2021-10-06 01:03:00,,0828.5,5.01,0.00,29.4,28.6,00.0,38.3,31.3,14.1,0002.1,0020.00,0004.94,0003.47
2021-10-06 01:04:00,,0828.5,4.99,0.00,29.5,28.7,00.0,38.4,31.4,14.2,0000.5,0019.44,0004.93,0003.47
2021-10-06 01:05:00,,0828.5,4.99,0.00,29.5,28.8,00.0,38.4,31.4,14.1,0000.2,0020.10,0004.91,0003.46
2021-10-06 01:06:00,,0828.5,5.01,0.00,29.6,28.9,00.0,38.4,31.5,13.8,0000.0,0020.51,0004.89,0003.47
2021-10-06 01:07:00,,0828.5,5.01,0.00,29.6,29.0,00.0,38.5,31.5,14.0,0000.0,0019.27,0004.97,0003.49
2021-10-06 01:08:00,,0828.5,5.00,0.00,29.6,27.8,00.0,38.5,31.2,14.0,0000.0,0019.08,0004.98,0003.50
2021-10-06 01:09:00,,0828.5,4.98,0.00,29.4,25.7,00.0,38.5,30.7,14.0,0000.0,0018.81,0004.98,0003.51
2021-10-06 01:10:00,,0828.7,5.01,0.00,29.3,25.5,00.0,38.4,30.6,14.1,0000.0,0018.35,0004.97,0003.51
2021-10-06 01:11:00,,0828.6,5.00,0.00,29.2,25.9,00.0,38.4,30.7,14.1,0000.0,0019.03,0004.97,0003.53
2021-10-06 01:12:00,,0828.7,5.01,0.00,29.1,26.4,00.0,38.3,30.8,14.2,0000.0,0018.69,0005.01,0003.55
2021-10-06 01:13:00,,0828.7,5.00,0.00,29.1,26.8,00.0,38.3,30.9,14.2,0000.0,0018.73,0005.04,0003.55
2021-10-06 01:14:00,,0829.1,5.01,0.00,29.2,27.2,00.0,38.3,30.9,14.3,0000.0,0018.62,0005.11,0003.55
2021-10-06 01:15:00,,0828.8,4.99,0.00,29.2,27.6,00.0,38.3,31.0,14.2,0000.0,0019.22,0005.14,0003.56
2021-10-06 01:16:00,,0828.9,5.01,0.00,29.2,27.9,00.0,38.3,31.1,14.3,0000.0,0019.75,0005.11,0003.57
2021-10-06 01:17:00,,0829.1,4.99,0.00,29.3,28.1,00.0,38.3,31.1,14.3,0000.0,0019.43,0005.09,0003.56
2021-10-06 01:18:00,,0828.9,4.99,0.00,29.3,28.3,00.0,38.3,31.2,14.1,0000.0,0019.81,0005.11,0003.57
2021-10-06 01:19:00,,0829.1,5.00,0.00,29.4,28.5,00.0,38.3,31.3,14.0,0000.0,0018.91,0005.10,0003.58
2021-10-06 01:20:00,,0828.9,5.01,0.00,29.4,28.6,00.0,38.4,31.3,13.9,0000.0,0018.67,0005.07,0003.57
2021-10-06 01:21:00,,0828.8,4.98,0.00,29.5,28.7,00.0,38.4,31.4,13.7,0000.0,0018.73,0005.05,0003.58
2021-10-06 01:22:00,,0828.9,4.99,0.00,29.5,28.8,00.0,38.4,31.4,13.7,0000.0,0017.47,0005.00,0003.57
2021-10-06 01:23:00,,0828.7,5.00,0.00,29.6,28.9,00.0,38.5,31.5,13.7,0000.0,0017.53,0005.02,0003.57
2021-10-06 01:24:00,,0829.2,5.00,0.00,29.6,28.9,00.0,38.5,31.6,13.6,0000.0,0017.42,0005.02,0003.56
2021-10-06 01:25:00,,0829.2,5.00,0.00,29.7,29.0,00.0,38.5,31.6,13.5,0000.0,0016.67,0004.97,0003.55
2021-10-06 01:26:00,,0829.2,5.00,0.00,29.7,28.0,00.0,38.5,31.4,13.5,0000.0,0015.62,0004.90,0003.53
2021-10-06 01:27:00,,0829.2,5.01,0.00,29.5,26.4,00.0,38.5,31.0,13.7,0000.0,0014.22,0004.93,0003.52
2021-10-06 01:28:00,,0829.2,4.99,0.00,29.5,26.4,00.0,38.5,31.0,13.8,0000.0,0014.03,0004.93,0003.50
2021-10-06 01:29:00,,0829.1,5.00,0.00,29.4,26.8,00.0,38.5,31.0,13.7,0000.4,0013.26,0004.89,0003.48
2021-10-06 01:30:00,,0829.2,5.01,0.00,29.4,27.2,00.0,38.5,31.1,13.8,0002.2,0013.17,0004.83,0003.46
2021-10-06 01:31:00,,0829.2,4.99,0.00,29.4,27.5,00.0,38.5,31.1,13.7,0002.5,0012.64,0004.76,0003.45
2021-10-06 01:32:00,,0829.0,5.00,0.00,29.4,27.8,00.0,38.5,31.2,13.8,0002.5,0012.15,0004.71,0003.43
2021-10-06 01:33:00,,0828.9,5.01,0.00,29.5,28.0,00.0,38.5,31.3,13.9,0002.4,0012.26,0004.72,0003.43
2021-10-06 01:34:00,,0828.7,4.99,0.00,29.5,28.2,00.0,38.5,31.3,13.9,0002.9,0012.29,0004.65,0003.41
2021-10-06 01:35:00,,0828.7,5.00,0.00,29.5,28.3,00.0,38.5,31.4,13.9,0003.4,0011.85,0004.58,0003.40
2021-10-06 01:36:00,,0828.7,4.99,0.00,29.6,28.5,00.0,38.5,31.4,13.9,0003.8,0011.94,0004.54,0003.40
2021-10-06 01:37:00,,0828.7,5.00,0.00,29.6,28.6,00.0,38.5,31.5,14.0,0004.1,0012.36,0004.55,0003.40
2021-10-06 01:38:00,,0828.7,4.98,0.00,29.6,28.7,00.0,38.5,31.5,14.0,0004.3,0012.97,0004.58,0003.41
2021-10-06 01:39:00,,0828.7,4.99,0.00,29.7,28.8,00.0,38.6,31.6,14.0,0004.5,0013.44,0004.59,0003.42
2021-10-06 01:40:00,,0829.0,5.01,0.00,29.7,28.5,00.0,38.6,31.5,13.9,0004.8,0014.47,0004.61,0003.43
2021-10-06 01:41:00,,0828.7,5.00,0.00,29.6,26.8,00.0,38.6,31.1,14.1,0000.6,0014.49,0004.62,0003.42
2021-10-06 01:42:00,,0828.9,5.00,0.00,29.5,26.3,00.0,38.6,30.9,14.3,0000.0,0014.64,0004.67,0003.43
2021-10-06 01:43:00,,0828.9,5.00,0.00,29.4,26.6,00.0,38.6,31.0,14.4,0000.0,0014.20,0004.70,0003.42
2021-10-06 01:44:00,,0829.1,5.00,0.00,29.4,27.0,00.0,38.5,31.0,14.6,0000.0,0014.05,0004.71,0003.43
2021-10-06 01:45:00,,0829.2,4.99,0.00,29.4,27.3,00.0,38.5,31.1,14.6,0000.0,0013.60,0004.73,0003.44
2021-10-06 01:46:00,,0829.3,5.01,0.00,29.4,27.6,00.0,38.5,31.2,14.5,0000.0,0014.18,0004.75,0003.44
2021-10-06 01:47:00,,0829.4,4.99,0.00,29.4,27.9,00.0,38.5,31.2,14.5,0000.0,0013.84,0004.68,0003.43
2021-10-06 01:48:00,,0829.3,5.01,0.00,29.5,28.0,00.0,38.5,31.3,14.4,0000.0,0013.24,0004.66,0003.43
2021-10-06 01:49:00,,0829.3,4.99,0.00,29.5,28.2,00.0,38.5,31.4,14.5,0000.0,0012.73,0004.62,0003.43
2021-10-06 01:50:00,,0829.4,5.00,0.00,29.5,28.3,00.0,38.5,31.4,14.4,0000.0,0012.40,0004.62,0003.43
2021-10-06 01:51:00,,0829.1,4.99,0.00,29.6,28.4,00.0,38.5,31.4,14.5,0000.0,0012.07,0004.61,0003.43
2021-10-06 01:52:00,,0829.3,5.01,0.00,29.6,28.5,00.0,38.6,31.5,14.6,0000.0,0012.64,0004.60,0003.44
2021-10-06 01:53:00,,0829.2,4.98,0.00,29.6,28.6,00.0,38.6,31.5,14.6,0000.0,0012.70,0004.59,0003.44
2021-10-06 01:54:00,,0829.1,5.01,0.00,29.7,28.6,00.0,38.6,31.6,14.7,0000.0,0012.62,0004.56,0003.44
2021-10-06 01:55:00,,0828.8,4.99,0.00,29.7,28.7,00.0,38.6,31.6,14.7,0000.0,0012.93,0004.56,0003.44
2021-10-06 01:56:00,,0828.9,5.00,0.00,29.7,27.5,00.0,38.6,31.3,14.8,0000.0,0013.73,0004.60,0003.44
2021-10-06 01:57:00,,0828.8,5.01,0.00,29.5,26.2,00.0,38.6,30.9,14.9,0000.0,0014.59,0004.62,0003.46
2021-10-06 01:58:00,,0828.9,5.00,0.00,29.5,26.3,00.0,38.6,30.9,15.1,0000.0,0014.44,0004.70,0003.48
2021-10-06 01:59:00,,0828.9,4.99,0.00,29.4,26.7,00.0,38.5,31.0,15.2,0000.0,0014.85,0004.76,0003.50
